Theta_e
315 315 316 318 321 322 322 322 321 320 319 318 317 315 313 312 310 309 308 308 307 307 307 307 307 307 307 306 306 306 305 305 305 305 305 305 304 304 304 304 303 303 303
316 317 319 321 322 322 322 321 320 319 319 318 317 315 314 312 311 310 309 308 307 307 307 307 308 307 307 306 306 306 306 305 305 305 305 305 304 304 304 304 303 303 303
318 320 321 322 321 321 321 321 320 319 318 317 316 315 314 313 313 312 312 311 310 309 308 308 308 307 307 307 306 306 306 306 306 305 305 305 304 304 304 303 303 303 303
320 321 321 321 321 321 320 320 320 319 316 315 315 314 314 313 313 312 312 312 312 311 311 310 309 308 307 307 306 306 306 306 306 305 305 305 305 304 304 304 303 303 304
322 321 321 321 320 319 320 320 320 319 316 314 314 313 313 313 313 313 312 312 311 311 310 310 310 309 308 308 307 306 306 306 306 306 306 305 305 304 304 304 304 304 304
322 322 321 320 319 318 319 320 320 319 316 314 312 311 311 311 310 310 310 309 308 308 308 308 308 308 308 308 308 308 307 306 305 304 304 305 305 305 304 304 304 304 303
322 321 320 319 317 316 317 319 320 319 316 313 311 310 310 309 309 308 307 307 307 307 308 308 308 308 308 308 308 308 308 306 305 304 304 304 304 305 305 305 305 304 304
322 321 320 318 317 316 316 319 319 318 316 312 310 309 308 307 307 306 306 307 307 307 308 308 308 308 308 308 307 307 307 306 304 303 304 304 304 304 304 305 305 303 303
321 321 320 318 317 317 316 318 319 318 316 312 309 308 307 306 306 306 306 306 307 307 307 307 307 307 307 306 306 305 305 305 304 304 304 304 305 305 305 304 304 303 302
321 321 320 319 318 317 316 319 318 318 315 310 307 307 306 306 306 306 306 306 306 306 306 306 305 306 306 306 306 305 304 303 303 303 304 305 304 304 302 302 301 301 302
319 320 320 319 319 317 316 319 318 317 312 308 307 306 306 305 305 305 305 306 306 306 305 305 305 305 306 305 304 303 303 303 305 303 303 302 301 301 300 300 300 301 301
317 317 318 318 317 315 318 318 318 315 309 307 306 306 305 305 305 305 305 305 305 305 305 305 305 304 304 302 300 300 302 302 300 300 299 298 298 297 297 298 298 299 300
316 315 315 315 315 318 319 318 317 310 307 306 305 305 305 304 304 305 305 305 304 304 305 304 303 301 298 298 299 300 299 299 297 296 295 295 295 294 294 295 295 297 298
314 314 314 315 318 318 318 317 312 307 305 305 305 304 304 304 304 304 305 304 304 304 304 303 300 297 298 298 298 297 296 295 295 294 293 292 293 293 292 293 293 294 296
314 314 316 318 318 318 317 313 307 305 305 305 304 303 303 303 304 304 304 304 304 304 303 301 297 298 297 296 294 294 293 293 293 292 291 292 292 292 292 292 292 293 295
315 317 318 318 317 317 314 307 305 305 304 304 303 303 303 304 304 304 304 304 304 303 301 297 297 295 294 293 293 293 293 292 291 290 290 291 291 291 292 291 292 292 294
318 318 317 317 316 313 308 305 305 304 303 303 303 303 303 304 304 304 304 304 302 301 297 296 295 294 293 293 293 292 292 291 290 290 290 290 290 290 290 291 292 292 292
317 317 316 315 313 308 305 305 304 303 303 303 303 303 303 304 304 304 303 302 301 297 295 294 293 293 293 292 292 292 291 290 290 289 289 289 289 289 289 290 292 292 291
317 316 315 313 308 305 304 303 303 303 303 303 303 303 303 304 304 302 301 299 296 295 295 294 293 292 292 291 291 290 289 289 289 289 289 289 289 289 289 289 289 290 290
315 314 312 308 305 304 303 303 303 303 303 303 303 303 303 303 302 301 298 295 295 294 294 294 293 292 291 291 290 290 289 289 289 289 289 289 288 288 288 288 288 288 288
314 312 308 305 304 303 303 303 303 303 303 303 303 303 303 302 301 297 295 294 294 294 294 293 292 291 291 290 290 290 289 288 288 288 288 288 288 288 287 287 288 288 288
312 308 305 303 303 303 303 303 303 303 303 303 303 302 302 300 298 296 295 294 293 293 293 292 292 291 290 290 289 289 288 288 288 288 288 288 288 288 287 287 287 287 287
306 304 303 303 303 303 303 303 303 303 303 303 303 302 300 298 298 297 295 294 293 292 292 292 291 291 290 290 290 289 288 288 288 288 288 288 288 287 287 287 287 287 287
303 303 303 303 302 302 302 303 303 303 303 302 302 300 299 299 298 297 296 295 293 292 291 291 291 291 290 289 289 288 288 288 287 287 287 287 288 287 287 287 287 288 288
303 302 302 302 302 302 302 302 302 302 301 301 301 300 300 300 299 298 298 297 296 295 292 291 291 290 290 289 288 287 288 287 287 286 287 288 288 288 288 288 288 288 288
302 301 301 300 300 300 300 300 300 299 299 299 299 299 298 298 298 298 298 298 297 296 295 293 291 290 290 289 289 288 288 287 286 287 287 287 288 288 288 288 288 288 288
Wind_Speed
17 14 12 10 7 3 5 12 17 19 19 19 19 20 19 19 19 21 22 24 25 26 27 28 30 30 33 33 34 35 36 37 44 48 43 40 36 32 33 35 35 36 36
16 15 14 13 8 5 6 13 18 21 22 21 20 19 19 19 19 20 21 22 24 26 26 28 31 30 32 33 34 36 37 38 40 45 42 41 38 33 31 29 32 33 37
19 18 17 15 11 7 8 13 18 21 21 20 20 19 19 19 19 19 20 21 22 24 25 28 30 31 33 35 36 37 37 36 37 40 43 40 39 35 33 31 31 30 31
21 20 19 17 13 10 10 14 18 21 20 18 17 18 19 19 19 19 20 22 24 26 27 28 30 31 33 33 34 35 36 36 36 37 39 40 38 36 33 31 31 30 32
24 23 21 18 17 14 12 14 18 22 20 19 18 18 18 19 20 21 22 23 25 27 28 29 29 29 29 29 31 32 32 33 34 34 37 39 38 35 33 30 32 34 34
29 26 23 22 19 17 14 15 18 21 21 20 19 19 20 20 19 20 22 24 26 27 28 27 26 26 27 26 25 26 27 30 31 32 39 34 34 30 34 33 31 34 37
32 30 28 25 21 17 16 16 19 22 22 21 20 20 20 20 21 22 22 24 25 26 26 26 26 25 24 23 25 26 27 26 27 26 27 29 30 22 30 33 35 37 39
35 34 32 29 25 21 19 18 20 22 23 22 21 20 20 19 20 21 22 24 25 25 25 25 25 25 23 23 24 26 26 26 27 24 25 27 26 27 28 31 33 33 33
40 38 36 32 28 24 21 20 21 22 23 22 20 19 19 18 19 21 22 24 24 24 23 22 21 22 22 20 21 22 23 23 22 21 21 23 25 26 27 28 30 30 33
43 41 38 35 30 26 21 21 21 23 24 21 18 18 19 19 19 21 22 22 23 22 20 19 18 19 21 22 22 23 25 24 23 23 22 26 28 29 29 28 29 30 32
42 40 39 35 30 24 21 21 21 24 23 19 17 17 18 19 21 22 21 21 22 22 20 19 18 20 22 24 25 27 26 24 21 22 24 27 25 23 24 24 23 24 29
41 39 37 33 27 22 20 20 22 24 21 18 18 18 18 19 21 21 22 20 19 20 20 19 20 21 23 25 26 23 18 18 19 17 18 21 24 25 26 28 28 26 26
37 36 32 28 23 20 19 20 24 22 19 17 18 19 20 20 19 21 20 19 21 21 21 23 26 27 25 20 17 16 17 21 22 22 20 19 21 25 28 25 26 27 27
30 29 27 23 19 17 18 23 23 18 17 17 19 20 21 20 19 19 19 20 21 21 22 25 26 23 17 16 17 17 20 20 20 20 21 20 20 22 24 25 25 25 24
27 25 22 18 16 16 21 22 18 16 17 19 20 22 21 21 20 19 20 20 20 22 25 26 23 18 19 19 17 17 17 18 19 20 21 21 23 24 25 26 25 25 24
24 21 18 16 16 20 21 18 16 17 19 20 19 19 17 19 18 18 18 20 21 23 25 23 20 18 18 18 18 17 17 19 22 22 21 22 23 23 24 25 24 25 24
20 19 16 16 19 19 17 16 17 18 19 19 19 17 14 15 16 17 18 20 22 23 22 20 19 19 19 18 19 20 22 21 20 21 19 22 24 24 25 23 24 26 24
18 16 16 17 17 16 15 16 17 17 17 17 17 17 15 15 15 16 19 21 21 20 20 19 19 20 20 20 21 24 24 22 21 20 22 22 22 24 24 21 22 23 23
17 16 17 17 16 16 16 16 16 16 16 15 15 16 16 16 15 17 20 22 21 21 20 19 20 21 22 22 23 23 21 21 20 21 21 22 24 23 22 21 20 20 22
17 17 17 16 16 16 15 15 14 14 13 13 13 14 16 17 18 20 21 22 22 22 21 21 21 22 23 24 24 20 21 21 22 22 22 22 23 22 22 22 22 24 26
17 17 16 16 16 15 15 14 12 12 12 13 14 14 14 17 18 19 20 18 20 21 21 22 23 23 22 24 21 21 20 21 21 22 23 23 23 24 24 23 22 23 24
18 17 16 15 14 13 12 11 11 12 12 13 12 13 15 16 17 19 19 19 19 21 22 22 24 24 24 24 22 22 23 24 23 22 21 23 24 26 26 24 23 23 24
16 15 14 13 12 10 9 9 10 11 11 12 13 14 16 17 18 19 20 20 21 22 22 23 24 23 23 24 21 21 24 24 24 24 22 23 25 28 26 24 23 25 24
14 12 11 10 10 8 8 9 10 11 12 14 14 15 17 17 19 20 20 21 22 23 23 24 24 24 24 25 23 23 23 24 26 26 24 25 25 26 26 26 26 26 26
13 11 9 9 10 9 8 9 12 13 15 16 17 18 18 19 21 21 21 21 22 23 24 24 24 25 25 27 26 24 24 24 24 24 24 23 24 27 28 27 26 26 23
9 10 8 9 10 10 9 11 13 15 16 18 19 19 20 21 23 22 22 22 23 24 24 24 24 24 25 26 28 25 23 25 25 22 20 22 25 27 27 27 26 24 22
Wind_Direction
218 219 214 204 201 233 325 339 340 337 330 326 322 319 315 309 304 300 300 299 294 294 293 293 292 291 288 286 284 281 278 276 272 288 291 295 293 290 287 285 287 287 290
210 208 201 197 205 245 313 331 336 338 333 328 323 319 316 313 312 310 308 303 300 299 299 294 295 293 290 290 287 283 281 280 277 283 293 292 294 297 293 288 284 283 286
207 204 201 204 218 251 299 326 334 331 327 322 318 315 315 315 314 315 312 308 303 302 300 297 298 296 294 295 294 290 290 288 285 282 287 292 294 295 294 289 287 285 285
210 208 209 214 227 251 288 321 328 328 324 319 316 314 313 312 312 310 308 306 304 302 301 299 299 297 295 296 292 290 290 286 285 283 285 290 292 297 294 290 292 294 293
213 213 214 220 231 249 274 312 325 326 323 319 318 315 311 309 309 308 306 304 305 306 307 307 306 304 301 298 295 294 291 285 279 279 279 281 285 290 289 296 295 303 296
216 217 217 222 232 246 266 299 320 321 319 316 315 315 312 313 313 310 310 309 309 309 311 309 307 304 303 301 298 295 293 291 288 282 274 277 283 289 296 295 291 288 287
220 219 221 225 234 249 266 291 313 316 315 313 311 310 311 313 312 312 312 311 313 314 314 314 314 315 313 307 301 300 296 295 295 297 288 286 289 305 298 299 297 293 293
224 223 223 227 236 249 264 287 304 310 313 310 309 308 310 314 313 314 314 315 316 319 321 322 320 319 317 311 300 294 296 296 299 297 288 294 295 298 296 297 297 297 297
228 226 226 229 237 247 262 284 297 307 309 308 306 308 308 313 312 312 316 315 318 321 321 320 317 315 313 308 307 306 305 305 306 302 294 289 288 293 301 304 295 294 294
230 229 228 231 238 247 262 282 295 304 307 304 304 304 308 311 312 313 314 313 316 319 324 321 316 310 310 311 313 315 314 315 306 303 300 298 300 301 300 300 298 294 288
234 229 228 232 237 246 263 281 294 303 302 298 296 301 305 310 313 316 317 317 317 322 323 322 315 310 308 307 309 309 307 308 305 299 298 297 304 309 308 303 301 294 298
234 229 228 229 234 247 266 282 296 296 293 291 296 302 307 310 310 311 312 318 320 320 321 318 313 311 308 307 307 309 308 302 306 315 319 315 311 309 300 297 295 295 290
231 228 224 224 235 250 268 287 290 288 287 290 296 302 307 306 306 302 310 318 318 318 318 320 317 313 311 310 315 315 308 306 305 303 312 317 310 308 313 314 296 291 287
220 215 214 222 239 258 278 284 284 282 283 290 296 299 300 298 296 300 303 306 310 312 313 314 315 314 309 305 303 302 302 309 312 309 309 315 321 324 326 323 317 311 302
207 206 214 229 247 268 278 279 278 278 285 291 293 293 295 295 299 300 302 308 314 316 318 318 317 311 310 309 309 308 308 311 320 325 330 327 328 328 329 326 320 315 311
203 211 224 238 259 270 272 273 275 281 285 288 288 290 290 292 297 299 304 311 316 317 318 318 315 313 311 312 314 313 310 312 320 329 334 329 326 326 325 327 328 320 314
213 223 234 255 265 269 270 272 277 279 285 289 292 294 297 293 297 302 309 315 316 317 316 315 313 314 313 313 311 309 312 317 326 333 334 329 324 320 314 318 323 328 317
220 234 253 263 267 267 267 269 273 277 282 287 291 297 300 300 303 307 313 317 318 319 317 310 309 311 309 306 304 305 309 318 327 333 332 330 326 326 324 320 325 315 326
232 247 259 263 263 261 264 270 273 276 279 285 288 293 298 303 308 312 313 315 315 318 318 311 308 307 305 305 307 308 316 320 323 323 330 331 329 324 321 322 322 317 316
240 251 257 258 256 260 263 264 267 271 277 280 283 289 294 300 308 312 314 313 312 312 310 307 303 304 307 307 304 310 312 315 319 319 324 325 323 319 320 319 318 311 311
242 250 251 249 251 254 255 258 264 272 276 279 281 283 289 297 306 310 312 309 306 307 307 305 303 303 305 306 302 307 312 312 313 315 319 320 320 317 316 312 313 314 313
243 243 241 241 240 244 251 261 269 273 278 282 285 289 295 300 308 313 313 315 314 309 306 302 303 308 311 310 307 304 308 309 310 309 314 315 313 312 313 312 312 311 310
233 233 230 230 233 239 253 266 271 272 273 277 284 294 296 304 310 312 315 315 316 315 310 306 303 305 306 305 301 301 305 305 306 305 309 310 306 308 310 309 310 310 310
221 222 224 229 232 237 251 265 271 275 279 284 288 291 296 302 305 310 314 315 319 318 313 310 307 307 307 307 297 301 304 304 305 303 305 304 305 306 308 306 305 305 306
210 209 211 229 245 248 252 259 271 279 286 293 296 299 301 303 303 307 310 313 315 317 317 316 312 310 309 309 302 298 301 300 299 300 301 302 303 303 304 304 305 303 300
204 211 215 229 248 259 269 276 280 286 290 292 293 296 298 301 300 304 308 310 311 312 313 314 315 313 311 309 309 300 298 299 304 304 302 300 301 303 303 304 303 300 294